{"data":{"norad_id":60157,"intl_designator":"2024-120Y","name":"STARLINK-32129","alt_names":[],"object_type":"PAYLOAD","status":"ACTIVE","operator":null,"country":"US","launch_date":"2024-06-27","launch_site_code":"AFETR","launch_vehicle":null,"mission":null,"orbit_class":"UNKNOWN","rcs_meters":null,"size_class":null,"mass_kg":null,"dimensions":null,"purposes":["comms"],"wikipedia_slug":null,"has_3d_model":false,"image_url":null,"decayed_at":null,"tle_current":{"epoch":"2026-05-24T21:43:49.389600Z","epoch_age_seconds":86709,"freshness":"FRESH","line1":"1 60157U 24120Y   26144.90543275  .00006243  00000+0  19576-3 0  9995","line2":"2 60157  53.1609 326.0159 0000980  93.3847 266.7268 15.34396029108123","mean_motion":15.34396029,"eccentricity":9.8e-5,"inclination_deg":53.1609,"raan_deg":326.0159,"arg_perigee_deg":93.3847,"mean_anomaly_deg":266.7268,"bstar":0.00019576,"rev_number":10812,"period_min":93.848000958298,"perigee_km":462.04463938121,"apogee_km":463.38544638161,"semimajor_km":6840.8520428814,"source":"CELESTRAK","updated_at":"2026-05-25T13:38:19.192843Z"}}}